Tracking 30009 objects as of 7-Dec-2024
HD Live streaming from Space Station
objects crossing your sky now

OPS 3151

Track OPS 3151 now!
OPS 3151 is classified as:


NORAD ID: 9803
Int'l Code: 1977-007A
Perigee: 36,233.5 km
Apogee: 36,927.0 km
Inclination: 6.2 °
Period: 1,476.5 minutes
Semi major axis: 42951 km
RCS: Unknown
Launch date: February 6, 1977
Source: United States (US)
Launch site: AIR FORCE EASTERN TEST RANGE (AFETR)
Your satellite tracking list
Your tracking list is empty




NASA's NSSDC Master Catalog

Two Line Element Set (TLE):
1 09803U 77007A   24341.76406503 -.00000151  00000-0  00000-0 0  9994
2 09803   6.1561 289.3339 0080734  23.3419 190.7715  0.97530122 19214
Source of the keplerian elements: McCants